• în Republica Moldova
  • Lista ţărilor
  • Pe 7 zile
  • Temperatura apei
  • Hartă satelitară
  • Meteo pe hartă
  • Widget-uri
  • user-avatar
    Intrare

    Meteo pe oră la Ischgl

    Astăzi, 24 Februarie, Sâmbătă

    Timp Temperatura Precipitaţii Vânt Presiune Umiditate
    00:00 -13°C° 0 mm 2 m/s 564 mmHg 78%
    01:00 -12°C° 0 mm 2 m/s 564 mmHg 76%
    02:00 -12°C° 0 mm 2 m/s 564 mmHg 77%
    03:00 -12°C° 0 mm 2 m/s 564 mmHg 77%
    04:00 -12°C° 0 mm 2 m/s 564 mmHg 78%
    05:00 -12°C° 0 mm 2 m/s 564 mmHg 78%
    06:00 -12°C° 0 mm 2 m/s 565 mmHg 79%
    07:00 -12°C° 0 mm 1 m/s 564 mmHg 74%
    08:00 -10°C° 0 mm 1 m/s 565 mmHg 74%
    09:00 -7°C° 0 mm 1 m/s 567 mmHg 73%
    10:00 -3°C° 0 mm 1 m/s 568 mmHg 72%
    11:00 -3°C° 0 mm 1 m/s 568 mmHg 77%
    12:00 -2°C° 0 mm 1 m/s 568 mmHg 82%
    13:00 -3°C° 0 mm 1 m/s 568 mmHg 89%
    14:00 -3°C° 0 mm 1 m/s 568 mmHg 89%
    15:00 -3°C° 0 mm 1 m/s 568 mmHg 89%
    16:00 -5°C° 0 mm 2 m/s 568 mmHg 89%
    17:00 -4°C° 0 mm 1 m/s 567 mmHg 91%
    18:00 -6°C° 0 mm 1 m/s 567 mmHg 92%
    19:00 -8°C° 0 mm 1 m/s 566 mmHg 94%
    20:00 -8°C° 0,1 mm 1 m/s 566 mmHg 94%
    21:00 -9°C° 0,1 mm 1 m/s 566 mmHg 94%
    22:00 -10°C° 0,1 mm 1 m/s 566 mmHg 94%
    23:00 -10°C° 0 mm 1 m/s 566 mmHg 94%

    Mâine, 25 Februarie, Duminică

    Timp Temperatura Precipitaţii Vânt Presiune Umiditate
    00:00 -11°C° 0 mm 1 m/s 566 mmHg 94%
    01:00 -11°C° 0 mm 1 m/s 566 mmHg 94%
    02:00 -12°C° 0 mm 1 m/s 566 mmHg 94%
    03:00 -12°C° 0 mm 1 m/s 565 mmHg 94%
    04:00 -12°C° 0 mm 1 m/s 565 mmHg 94%
    05:00 -13°C° 0 mm 1 m/s 565 mmHg 93%
    06:00 -13°C° 0 mm 1 m/s 565 mmHg 92%
    07:00 -14°C° 0 mm 1 m/s 565 mmHg 92%
    08:00 -15°C° 0 mm 2 m/s 565 mmHg 89%
    09:00 -14°C° 0 mm 2 m/s 566 mmHg 86%
    10:00 -14°C° 0 mm 2 m/s 566 mmHg 83%
    11:00 -13°C° 0,1 mm 2 m/s 566 mmHg 81%
    12:00 -13°C° 0,1 mm 2 m/s 566 mmHg 80%
    13:00 -14°C° 0,1 mm 3 m/s 566 mmHg 78%
    14:00 -15°C° 0,1 mm 3 m/s 566 mmHg 79%
    15:00 -15°C° 0,1 mm 3 m/s 565 mmHg 81%
    16:00 -16°C° 0,1 mm 3 m/s 565 mmHg 82%
    17:00 -18°C° 0,1 mm 3 m/s 564 mmHg 86%
    18:00 -19°C° 0,1 mm 2 m/s 563 mmHg 89%
    19:00 -21°C° 0,1 mm 2 m/s 563 mmHg 92%
    20:00 -23°C° 0 mm 2 m/s 562 mmHg 91%
    21:00 -24°C° 0 mm 2 m/s 562 mmHg 89%
    22:00 -22°C° 0 mm 1 m/s 561 mmHg 88%
    23:00 -23°C° 0 mm 1 m/s 561 mmHg 87%

    Poimâine, 26 Februarie, Luni

    Timp Temperatura Precipitaţii Vânt Presiune Umiditate
    00:00 -23°C° 0 mm 1 m/s 561 mmHg 85%
    01:00 -24°C° 0 mm 1 m/s 560 mmHg 83%
    02:00 -24°C° 0 mm 1 m/s 560 mmHg 83%
    03:00 -25°C° 0 mm 1 m/s 560 mmHg 82%
    04:00 -25°C° 0 mm 1 m/s 559 mmHg 82%
    05:00 -27°C° 0 mm 1 m/s 559 mmHg 83%
    06:00 -27°C° 0 mm 1 m/s 559 mmHg 84%
    07:00 -29°C° 0 mm 2 m/s 559 mmHg 85%
    08:00 -28°C° 0 mm 2 m/s 560 mmHg 83%
    09:00 -26°C° 0 mm 2 m/s 561 mmHg 80%
    10:00 -24°C° 0 mm 2 m/s 562 mmHg 77%
    11:00 -23°C° 0 mm 2 m/s 562 mmHg 75%
    12:00 -23°C° 0 mm 3 m/s 562 mmHg 73%
    13:00 -22°C° 0 mm 3 m/s 562 mmHg 70%
    14:00 -23°C° 0 mm 3 m/s 562 mmHg 73%
    15:00 -23°C° 0 mm 3 m/s 562 mmHg 75%
    16:00 -23°C° 0 mm 3 m/s 561 mmHg 77%
    17:00 -25°C° 0 mm 3 m/s 561 mmHg 81%
    18:00 -25°C° 0 mm 2 m/s 560 mmHg 86%
    19:00 -27°C° 0 mm 2 m/s 559 mmHg 90%
    20:00 -28°C° 0 mm 2 m/s 559 mmHg 90%
    21:00 -28°C° 0 mm 2 m/s 559 mmHg 90%
    22:00 -27°C° 0 mm 1 m/s 558 mmHg 89%
    23:00 -28°C° 0 mm 1 m/s 558 mmHg 88%

    27 Februarie, Marţi

    Timp Temperatura Precipitaţii Vânt Presiune Umiditate
    00:00 -28°C° 0 mm 1 m/s 558 mmHg 86%
    01:00 -28°C° 0 mm 1 m/s 557 mmHg 84%
    02:00 -28°C° 0 mm 1 m/s 557 mmHg 82%
    03:00 -28°C° 0 mm 1 m/s 557 mmHg 81%
    04:00 -28°C° 0 mm 1 m/s 557 mmHg 79%
    05:00 -28°C° 0 mm 1 m/s 557 mmHg 78%
    06:00 -29°C° 0 mm 1 m/s 556 mmHg 78%
    07:00 -29°C° 0 mm 1 m/s 556 mmHg 77%
    08:00 -25°C° 0 mm 1 m/s 558 mmHg 73%
    09:00 -23°C° 0 mm 1 m/s 559 mmHg 68%
    10:00 -21°C° 0 mm 1 m/s 560 mmHg 64%
    11:00 -20°C° 0 mm 1 m/s 560 mmHg 64%
    12:00 -19°C° 0 mm 1 m/s 560 mmHg 63%
    13:00 -18°C° 0 mm 1 m/s 560 mmHg 63%
    14:00 -20°C° 0 mm 2 m/s 560 mmHg 67%
    15:00 -20°C° 0 mm 2 m/s 561 mmHg 71%
    16:00 -20°C° 0 mm 2 m/s 561 mmHg 75%
    17:00 -19°C° 0 mm 1 m/s 560 mmHg 81%
    18:00 -21°C° 0 mm 1 m/s 559 mmHg 87%
    19:00 -22°C° 0 mm 1 m/s 559 mmHg 93%
    20:00 -23°C° 0 mm 1 m/s 559 mmHg 92%
    21:00 -23°C° 0 mm 1 m/s 559 mmHg 91%
    22:00 -24°C° 0 mm 1 m/s 559 mmHg 90%
    23:00 -24°C° 0 mm 1 m/s 559 mmHg 88%

    28 Februarie, Miercuri

    Timp Temperatura Precipitaţii Vânt Presiune Umiditate
    00:00 -27°C° 0 mm 2 m/s 559 mmHg 86%
    01:00 -27°C° 0 mm 2 m/s 559 mmHg 84%
    02:00 -27°C° 0 mm 2 m/s 559 mmHg 83%
    03:00 -27°C° 0 mm 2 m/s 559 mmHg 83%
    04:00 -27°C° 0 mm 2 m/s 559 mmHg 82%
    05:00 -28°C° 0 mm 2 m/s 559 mmHg 82%
    06:00 -28°C° 0 mm 2 m/s 559 mmHg 81%
    07:00 -28°C° 0 mm 2 m/s 559 mmHg 81%
    08:00 -22°C° 0 mm 1 m/s 561 mmHg 76%
    09:00 -19°C° 0 mm 1 m/s 562 mmHg 71%
    10:00 -17°C° 0 mm 1 m/s 564 mmHg 66%
    11:00 -15°C° 0 mm 1 m/s 564 mmHg 63%
    12:00 -16°C° 0 mm 2 m/s 564 mmHg 60%
    13:00 -15°C° 0 mm 2 m/s 565 mmHg 56%
    14:00 -15°C° 0 mm 2 m/s 565 mmHg 59%
    15:00 -15°C° 0 mm 2 m/s 565 mmHg 62%
    16:00 -14°C° 0 mm 2 m/s 565 mmHg 65%
    17:00 -16°C° 0 mm 2 m/s 564 mmHg 71%
    18:00 -17°C° 0 mm 2 m/s 564 mmHg 76%
    19:00 -21°C° 0 mm 3 m/s 563 mmHg 82%
    20:00 -21°C° 0 mm 3 m/s 563 mmHg 82%
    21:00 -21°C° 0 mm 3 m/s 563 mmHg 82%
    22:00 -21°C° 0 mm 3 m/s 563 mmHg 82%
    23:00 -21°C° 0 mm 3 m/s 563 mmHg 81%

    1 Martie, Joi

    Timp Temperatura Precipitaţii Vânt Presiune Umiditate
    00:00 -21°C° 0 mm 3 m/s 563 mmHg 81%
    01:00 -21°C° 0 mm 3 m/s 563 mmHg 80%
    02:00 -19°C° 0 mm 3 m/s 563 mmHg 80%
    03:00 -18°C° 0 mm 3 m/s 563 mmHg 80%
    04:00 -18°C° 0 mm 3 m/s 563 mmHg 80%
    05:00 -17°C° 0,1 mm 3 m/s 563 mmHg 80%
    06:00 -17°C° 0,1 mm 3 m/s 563 mmHg 81%
    07:00 -18°C° 0,1 mm 4 m/s 563 mmHg 81%
    08:00 -16°C° 0,1 mm 4 m/s 563 mmHg 81%
    09:00 -15°C° 0,1 mm 4 m/s 564 mmHg 80%
    10:00 -12°C° 0,1 mm 4 m/s 564 mmHg 80%
    11:00 -11°C° 0,2 mm 4 m/s 564 mmHg 80%
    12:00 -11°C° 0,2 mm 4 m/s 564 mmHg 81%
    13:00 -10°C° 0,2 mm 4 m/s 564 mmHg 82%
    14:00 -9°C° 0,3 mm 3 m/s 564 mmHg 83%
    15:00 -9°C° 0,3 mm 3 m/s 563 mmHg 84%
    16:00 -9°C° 0,3 mm 3 m/s 563 mmHg 85%
    17:00 -9°C° 0,3 mm 3 m/s 563 mmHg 87%
    18:00 -10°C° 0,3 mm 3 m/s 562 mmHg 88%
    19:00 -12°C° 0,3 mm 3 m/s 562 mmHg 89%
    20:00 -10°C° 0,2 mm 3 m/s 562 mmHg 89%
    21:00 -10°C° 0,2 mm 3 m/s 562 mmHg 88%
    22:00 -10°C° 0,2 mm 3 m/s 561 mmHg 87%
    23:00 -10°C° 0,1 mm 3 m/s 561 mmHg 87%
    Arată mai mult